[[{"header":{"parameterUnit":"m.s-1","parameterCategory":1,"la1":30.2991,"la2":30.254,"lo1":-89.0895,"lo2":-89.0444,"dy":0.0017,"dx":0.0017,"nx":28,"ny":28,"refTime":"2024-04-25T21:00:00:Z","depth":0,"parameterNumber":2,"parameterNumberName":"U-component_of_WINDS"},"data":[0,0,0,0,0,0,0,0,0,0,0,0,0,0,0,0,0,0,0,0,0,0,0,0,0,0,0,0,0,0,0,0,0,0,0,0,0,0,0,0,0,0,0,0,0,0,0,0,0,0,0,0,0,0,0,0,0,0,-2.2232,-2.2232,0,-2.2258,-2.2259,-2.2259,-2.2232,-2.2231,-2.223,-2.2229,-2.2257,-2.2259,-2.226,0,0,0,0,0,0,0,0,0,0,0,0,0,-2.2159,-2.216,-2.2232,-2.2232,-2.2232,-2.2258,-2.2259,-2.2259,-2.2232,-2.2231,-2.223,-2.2228,-2.2256,-2.2259,-2.2261,0,0,0,0,0,0,0,0,0,0,0,0,0,-2.2188,-2.2161,-2.2232,-2.2222,-2.2221,-2.2258,-2.2259,-2.2259,-2.2232,-2.2231,-2.2229,-2.2228,-2.2256,-2.2258,-2.2261,-2.2309,0,0,-2.2269,-2.227,0,0,0,0,0,0,0,0,-2.2187,-2.2191,-2.2223,-2.2223,-2.2222,-2.224,-2.2243,-2.2276,-2.2233,-2.2228,-2.2229,-2.2227,-2.2253,-2.2256,-2.2264,-2.231,-2.2311,-2.2269,-2.2271,-2.2272,-2.2273,0,0,0,0,0,0,0,-2.2185,-2.219,-2.2242,-2.2224,-2.2223,-2.2217,-2.2219,-2.2249,-2.2249,-2.2229,-2.2227,-2.223,-2.2252,-2.2262,-2.2265,-2.2312,-2.2269,-2.2271,-2.2273,-2.2274,-2.2398,-2.24,0,0,0,0,0,0,-2.2183,-2.2188,-2.2241,-2.2243,-2.22,-2.2219,-2.2222,-2.2236,-2.2249,-2.2249,-2.2231,-2.2229,-2.2258,-2.2262,-2.2265,-2.2322,-2.2272,-2.2274,-2.2276,-2.2397,-2.2399,-2.24,0,0,0,0,0,0,-2.2182,-2.2188,-2.224,-2.2215,-2.2221,-2.2222,-2.2238,-2.2237,-2.2247,-2.2251,-2.2251,-2.2241,-2.2257,-2.2262,-2.2298,-2.2323,-2.2275,-2.2278,-2.2394,-2.2397,-2.24,-2.2436,0,0,0,0,0,0,-2.218,-2.2188,-2.2206,-2.2216,-2.2223,-2.2272,-2.224,-2.2239,-2.2251,-2.2248,-2.226,-2.226,-2.2256,-2.2294,-2.2301,-2.2325,-2.228,-2.2392,-2.2396,-2.2399,-2.2432,-2.2439,-2.2445,0,0,0,0,0,-2.2178,-2.2216,-2.2207,-2.2214,-2.2245,-2.2274,-2.2278,-2.2272,-2.2253,-2.2271,-2.2274,-2.226,-2.2319,-2.2298,-2.2305,-2.2331,-2.2391,-2.2395,-2.2398,-2.243,-2.2438,-2.2445,0,0,0,0,0,0,-2.2209,-2.2217,-2.2207,-2.225,-2.2261,-2.2269,-2.2292,-2.2281,-2.2298,-2.2295,-2.2287,-2.229,-2.2328,-2.2333,-2.231,-2.2378,-2.2352,-2.2357,-2.2373,-2.2381,-2.2387,-2.2385,-2.2282,0,0,0,0,0,-2.2221,-2.2243,-2.2249,-2.2286,-2.2292,-2.2291,-2.2303,-2.2298,-2.231,-2.2314,-2.232,-2.2332,-2.2353,-2.2368,-2.2388,-2.2433,-2.2435,-2.2454,-2.2461,-2.2466,-2.2471,-2.2495,-2.2504,-2.2413,-2.2413,-2.2413,0,0,-2.2246,-2.2253,-2.2267,-2.2292,-2.23,-2.2324,-2.2295,-2.2322,-2.2339,-2.2319,-2.2353,-2.2357,-2.2371,-2.2412,-2.243,-2.2417,-2.2496,-2.2471,-2.2475,-2.2477,-2.25,-2.2509,-2.2516,-2.2416,-2.2415,-2.2415,0,0,-2.2303,-2.231,-2.2342,-2.235,-2.2363,-2.2363,-2.237,-2.238,-2.2382,-2.2416,-2.2401,-2.2422,-2.2459,-2.2469,-2.2479,-2.254,-2.2527,-2.2547,-2.258,-2.2604,-2.2611,-2.2617,-2.2639,-2.2647,-2.2552,-2.2552,-2.2552,0,-2.2332,-2.2367,-2.2359,-2.2386,-2.2398,-2.238,-2.2412,-2.2421,-2.244,-2.2448,-2.2433,-2.2479,-2.2487,-2.253,-2.2545,-2.2554,-2.2562,-2.2545,-2.2611,-2.2617,-2.2622,-2.2643,-2.2651,-2.2554,-2.2554,-2.2553,-2.2553,0,-2.2402,-2.2426,-2.245,-2.2468,-2.2482,-2.2512,-2.2509,-2.2524,-2.2517,-2.2518,-2.2553,-2.2562,-2.2583,-2.2593,-2.2587,-2.2636,-2.2627,-2.2612,-2.2585,-2.2633,-2.2652,-2.266,-2.2557,-2.2556,-2.2556,-2.2555,0,0,-2.248,-2.2493,-2.2502,-2.251,-2.2523,-2.2542,-2.257,-2.2591,-2.2604,-2.2618,-2.2641,-2.2673,-2.2659,-2.267,-2.2665,-2.2686,-2.2733,-2.2668,-2.2668,-2.2679,-2.2787,-2.2798,-2.2807,-2.2725,-2.2727,-2.2728,-2.2786,0,-2.2537,-2.2586,-2.258,-2.2627,-2.2649,-2.2633,-2.2658,-2.2669,-2.267,-2.269,-2.2692,-2.2714,-2.2694,-2.27,-2.272,-2.2723,-2.2755,-2.2719,-2.2747,-2.2748,-2.2744,-2.2817,-2.2829,-2.2883,-2.2793,-2.2794,-2.2795,0,-2.261,-2.2626,-2.2675,-2.2684,-2.2693,-2.2716,-2.2734,-2.2753,-2.2765,-2.2764,-2.2777,-2.2768,-2.2797,-2.277,-2.281,-2.2786,-2.2797,-2.28,-2.2802,-2.2804,-2.2774,-2.2821,-2.2901,-2.2909,-2.2807,-2.2806,-2.2805,0,-2.2662,-2.2695,-2.2729,-2.2736,-2.2748,-2.2764,-2.277,-2.278,-2.2793,-2.2809,-2.2817,-2.2836,-2.2847,-2.2862,-2.2858,-2.2839,-2.2899,-2.2872,-2.29,-2.29,-2.2913,-2.2912,-2.2995,-2.2921,-2.292,-2.292,-2.292,0,-2.2726,-2.2757,-2.2752,-2.2773,-2.2807,-2.28,-2.2834,-2.2837,-2.2847,-2.2868,-2.2855,-2.2876,-2.287,-2.289,-2.2888,-2.2921,-2.2926,-2.2926,-2.2925,-2.2927,-2.2927,-2.2934,-2.2931,-2.2922,-2.2922,-2.2922,-2.2921,0,-2.2789,-2.2788,-2.2823,-2.2831,-2.2834,-2.2858,-2.2865,-2.2885,-2.2885,-2.2912,-2.2918,-2.2919,-2.2942,-2.294,-2.2967,-2.2965,-2.3006,-2.3001,-2.3002,-2.3,-2.3028,-2.3025,-2.3118,-2.313,-2.3048,-2.3049,-2.305,0,-2.2831,-2.2854,-2.2864,-2.2877,-2.2884,-2.2905,-2.2917,-2.2912,-2.2925,-2.294,-2.2958,-2.298,-2.2997,-2.3035,-2.3038,-2.3058,-2.3053,-2.3084,-2.3056,-2.3057,-2.3053,-2.3051,-2.3053,-2.3089,-2.309,-2.3091,-2.3092,0,-2.2904,-2.2902,-2.292,-2.2938,-2.2953,-2.2967,-2.298,-2.2992,-2.2987,-2.3003,-2.3026,-2.3039,-2.3066,-2.3088,-2.3106,-2.3112,-2.3101,-2.31,-2.3108,-2.311,-2.311,-2.311,-2.3017,-2.3098,-2.3098,-2.3097,-2.3097,-2.3097,-2.2957,-2.2977,-2.2987,-2.3008,-2.3017,-2.3029,-2.3047,-2.305,-2.3069,-2.309,-2.3085,-2.3111,-2.3122,-2.3146,-2.3154,-2.3175,-2.3163,-2.3174,-2.3177,-2.318,-2.3183,-2.3107,-2.3178,-2.3178,-2.3178,-2.3177,-2.3177,0,-2.303,-2.3035,-2.3054,-2.3072,-2.3089,-2.3076,-2.309,-2.3104,-2.3127,-2.3138,-2.3155,-2.3182,-2.3203,-2.3207,-2.3227,-2.3243,-2.3238,-2.3248,-2.3247,-2.3249,-2.3192,-2.3183,-2.3252,-2.3252,-2.3252,-2.3252,-2.3252,-2.3252,-2.3069,-2.3102,-2.3101,-2.3138,-2.3143,-2.3168,-2.3176,-2.3188,-2.3196,-2.3226,-2.3243,-2.3246,-2.3255,-2.3275,-2.3294,-2.3295,-2.3303,-2.3315,-2.3314,-2.326,-2.3253,-2.3246,-2.3237,-2.3317,-2.3317,-2.3369,-2.3369,-2.337]},{"header":{"parameterUnit":"m.s-1","parameterCategory":1,"la1":30.2991,"la2":30.254,"lo1":-89.0895,"lo2":-89.0444,"dy":0.0017,"dx":0.0017,"nx":28,"ny":28,"refTime":"2024-04-25T21:00:00:Z","depth":0,"parameterNumber":3,"parameterNumberName":"V-component_of_WINDS"},"data":[0,0,0,0,0,0,0,0,0,0,0,0,0,0,0,0,0,0,0,0,0,0,0,0,0,0,0,0,0,0,0,0,0,0,0,0,0,0,0,0,0,0,0,0,0,0,0,0,0,0,0,0,0,0,0,0,0,0,5.1589,5.1589,0,5.1625,5.1626,5.1626,5.1538,5.1535,5.1532,5.1529,5.1565,5.1568,5.1572,0,0,0,0,0,0,0,0,0,0,0,0,0,5.144,5.1443,5.1589,5.1589,5.159,5.1625,5.1626,5.1626,5.1538,5.1535,5.1531,5.1528,5.1564,5.1568,5.1572,0,0,0,0,0,0,0,0,0,0,0,0,0,5.1493,5.1444,5.1589,5.155,5.1547,5.1625,5.1626,5.1626,5.1539,5.1535,5.153,5.1527,5.1562,5.1567,5.1573,5.1689,0,0,5.1589,5.1591,0,0,0,0,0,0,0,0,5.149,5.1499,5.1555,5.1553,5.155,5.1573,5.1586,5.1647,5.154,5.1542,5.1529,5.1524,5.1571,5.1575,5.1591,5.1691,5.1693,5.1589,5.1593,5.1595,5.1596,0,0,0,0,0,0,0,5.1487,5.1497,5.1603,5.1556,5.1553,5.153,5.1533,5.1597,5.1579,5.1541,5.1535,5.1541,5.1568,5.1586,5.1591,5.1693,5.1589,5.1594,5.1597,5.1599,5.1889,5.1893,0,0,0,0,0,0,5.1488,5.1494,5.1602,5.1604,5.1509,5.1536,5.1539,5.1569,5.1578,5.1576,5.1544,5.1536,5.1579,5.1585,5.1592,5.1728,5.1595,5.16,5.1603,5.1885,5.189,5.1895,0,0,0,0,0,0,5.1486,5.1499,5.16,5.1548,5.1559,5.1543,5.1578,5.1572,5.159,5.1581,5.1577,5.1566,5.1576,5.1585,5.1666,5.1728,5.1602,5.1607,5.1879,5.1886,5.1893,5.2002,0,0,0,0,0,0,5.1482,5.1498,5.1543,5.1549,5.1562,5.1675,5.1581,5.1576,5.16,5.159,5.16,5.1597,5.1573,5.1658,5.1671,5.1733,5.1611,5.1874,5.1882,5.189,5.1993,5.2012,5.2028,0,0,0,0,0,5.1477,5.1572,5.1546,5.1559,5.1618,5.1678,5.1685,5.1656,5.1605,5.165,5.1643,5.1597,5.172,5.1667,5.1681,5.1746,5.187,5.188,5.189,5.1985,5.2008,5.2028,0,0,0,0,0,0,5.1573,5.1573,5.1543,5.1644,5.1662,5.1663,5.1718,5.1682,5.1714,5.1704,5.1666,5.1669,5.1757,5.1759,5.1701,5.1858,5.1786,5.1799,5.1853,5.1875,5.1893,5.1889,5.1616,0,0,0,0,0,5.1607,5.1657,5.1653,5.1742,5.1753,5.1735,5.176,5.1736,5.1753,5.176,5.1759,5.1777,5.1819,5.1847,5.1886,5.1993,5.1993,5.2044,5.2062,5.2076,5.2088,5.2144,5.2166,5.1928,5.1928,5.1928,0,0,5.1675,5.1681,5.1715,5.1762,5.1773,5.1824,5.1741,5.18,5.1837,5.1768,5.1844,5.1845,5.1862,5.1956,5.1998,5.1961,5.2154,5.2089,5.2101,5.2105,5.2156,5.2179,5.2199,5.1935,5.1934,5.1933,0,0,5.1827,5.1837,5.1912,5.1925,5.1943,5.193,5.1948,5.1955,5.1953,5.2029,5.1978,5.2022,5.2096,5.211,5.2126,5.2283,5.2241,5.2297,5.2388,5.2443,5.2462,5.2478,5.2533,5.2553,5.2309,5.2309,5.2309,0,5.191,5.1986,5.1955,5.2017,5.2038,5.1979,5.2053,5.2067,5.2097,5.2113,5.2072,5.2162,5.217,5.2266,5.2304,5.232,5.2339,5.2295,5.2462,5.2478,5.2493,5.2544,5.2565,5.2315,5.2315,5.2314,5.2313,0,5.2087,5.2141,5.2199,5.2229,5.2257,5.2326,5.2303,5.2335,5.2309,5.2301,5.2378,5.2385,5.2423,5.2445,5.242,5.2537,5.2514,5.2468,5.2394,5.2522,5.257,5.259,5.2325,5.2322,5.232,5.2319,0,0,5.2299,5.2312,5.2333,5.2346,5.2362,5.2402,5.2467,5.2505,5.2533,5.2556,5.2608,5.2672,5.263,5.2649,5.2625,5.2673,5.2795,5.2621,5.2621,5.2652,5.2924,5.2958,5.2981,5.2768,5.2772,5.2775,5.2922,0,5.2448,5.256,5.2533,5.2644,5.2692,5.2637,5.2693,5.2709,5.2702,5.2742,5.2734,5.278,5.2721,5.2732,5.2777,5.2771,5.2849,5.276,5.2816,5.2818,5.2812,5.3006,5.3042,5.3181,5.2941,5.2944,5.2946,0,5.2636,5.2666,5.2782,5.2789,5.2808,5.286,5.2892,5.2931,5.2947,5.2938,5.296,5.2926,5.2989,5.2916,5.3002,5.2942,5.2963,5.2963,5.2968,5.2971,5.2889,5.3013,5.3225,5.3245,5.2976,5.2973,5.2971,0,5.2778,5.2848,5.2925,5.2938,5.2949,5.2986,5.2992,5.3004,5.3028,5.3056,5.3071,5.3106,5.3125,5.3153,5.3129,5.3078,5.3218,5.3143,5.3212,5.3213,5.3243,5.3241,5.346,5.3259,5.3259,5.3259,5.3258,0,5.2946,5.3019,5.2989,5.3037,5.3116,5.3085,5.3164,5.3163,5.3174,5.322,5.3174,5.3218,5.3185,5.3226,5.3208,5.3281,5.329,5.3284,5.3278,5.3288,5.3288,5.33,5.3289,5.3264,5.3263,5.3262,5.3261,0,5.3118,5.3101,5.3182,5.3185,5.3188,5.3246,5.3248,5.3292,5.3283,5.3341,5.3353,5.3338,5.3384,5.3363,5.3411,5.3399,5.3492,5.3474,5.3487,5.3482,5.3552,5.3545,5.3785,5.3814,5.3596,5.3598,5.36,0,5.3225,5.328,5.3289,5.3317,5.3326,5.3372,5.3396,5.3367,5.3395,5.3417,5.3458,5.3499,5.3531,5.3607,5.3599,5.3635,5.3617,5.3698,5.3622,5.3629,5.3617,5.3613,5.3618,5.3713,5.3716,5.3718,5.3719,0,5.3418,5.3407,5.3444,5.348,5.351,5.3536,5.3558,5.3583,5.3555,5.3588,5.3634,5.3659,5.3708,5.375,5.3781,5.3786,5.3748,5.3744,5.3761,5.3771,5.3776,5.3773,5.3528,5.3738,5.3736,5.3735,5.3734,5.3733,5.356,5.3605,5.3619,5.3662,5.3676,5.3697,5.3738,5.3734,5.3772,5.381,5.379,5.3844,5.3858,5.3897,5.3907,5.3948,5.3916,5.3942,5.3948,5.3955,5.3963,5.3771,5.3954,5.3953,5.3952,5.3952,5.3952,0,5.3749,5.3755,5.3795,5.3827,5.3861,5.3823,5.3845,5.3876,5.3924,5.394,5.3973,5.4025,5.4066,5.4062,5.4098,5.4132,5.4115,5.4142,5.4139,5.4141,5.3991,5.3971,5.4155,5.4155,5.4155,5.4155,5.4155,5.4155,5.3851,5.3926,5.3917,5.3997,5.4002,5.4055,5.4071,5.409,5.4103,5.4164,5.4197,5.4195,5.4203,5.4239,5.4274,5.4272,5.4287,5.4321,5.4312,5.4171,5.4151,5.4132,5.4113,5.4324,5.4325,5.4458,5.4459,5.446]}]]